TimePDT,TemperatureF,Dew PointF,Humidity,Sea Level PressureIn,VisibilityMPH,Wind Direction,Wind SpeedMPH,Gust SpeedMPH,PrecipitationIn,Events,Conditions,WindDirDegrees,DateUTC
12:53 AM,55.0,25.0,31,29.83,10.0,SSW,5.8,-,N/A,,Partly Cloudy,210,2012-10-20 07:53:00
1:53 AM,50.0,26.1,39,29.84,10.0,SE,4.6,-,N/A,,Clear,140,2012-10-20 08:53:00
2:53 AM,51.1,28.0,41,29.82,10.0,North,4.6,-,N/A,,Clear,350,2012-10-20 09:53:00
3:53 AM,46.0,26.1,46,29.82,10.0,East,3.5,-,N/A,,Clear,90,2012-10-20 10:53:00
4:53 AM,42.1,26.1,53,29.82,10.0,Calm,Calm,-,N/A,,Clear,0,2012-10-20 11:53:00
5:53 AM,39.9,28.9,65,29.83,10.0,Calm,Calm,-,N/A,,Clear,0,2012-10-20 12:53:00
6:53 AM,41.0,26.1,55,29.84,10.0,WNW,6.9,-,N/A,,Clear,300,2012-10-20 13:53:00
7:53 AM,39.9,26.1,58,29.85,10.0,East,4.6,-,N/A,,Clear,100,2012-10-20 14:53:00
8:53 AM,53.1,28.9,40,29.83,10.0,East,4.6,-,N/A,,Clear,90,2012-10-20 15:53:00
9:53 AM,61.0,30.0,31,29.81,10.0,Calm,Calm,-,N/A,,Clear,0,2012-10-20 16:53:00
10:53 AM,66.0,36.0,33,29.78,10.0,ESE,4.6,-,N/A,,Clear,110,2012-10-20 17:53:00
11:53 AM,71.1,28.9,21,29.77,10.0,West,15.0,23.0,N/A,,Clear,270,2012-10-20 18:53:00
12:53 PM,72.0,30.0,21,29.74,10.0,WNW,12.7,19.6,0.00,Rain,Light Rain,290,2012-10-20 19:53:00
1:53 PM,75.0,25.0,16,29.71,10.0,WNW,20.7,25.3,0.00,Rain,Light Rain,290,2012-10-20 20:53:00
2:53 PM,75.0,23.0,14,29.68,10.0,West,17.3,21.9,0.00,Rain,Light Rain,280,2012-10-20 21:53:00
3:53 PM,75.0,19.9,13,29.67,10.0,West,18.4,29.9,0.00,Rain,Light Rain,270,2012-10-20 22:53:00
4:53 PM,73.0,21.9,15,29.67,10.0,WNW,16.1,-,0.00,Rain,Light Rain,290,2012-10-20 23:53:00
5:53 PM,69.1,21.9,17,29.68,10.0,WNW,15.0,-,0.00,Rain,Light Rain,300,2012-10-21 00:53:00
6:53 PM,62.1,21.9,21,29.68,10.0,WNW,16.1,-,0.00,,Clear,300,2012-10-21 01:53:00
7:53 PM,59.0,18.0,20,29.72,10.0,SSW,6.9,-,N/A,,Clear,210,2012-10-21 02:53:00
8:53 PM,55.9,21.9,27,29.71,10.0,West,12.7,-,N/A,,Clear,280,2012-10-21 03:53:00
9:53 PM,54.0,21.9,29,29.72,10.0,Calm,Calm,-,N/A,,Clear,0,2012-10-21 04:53:00
10:53 PM,55.0,19.9,25,29.73,10.0,North,3.5,-,N/A,,Clear,360,2012-10-21 05:53:00
11:53 PM,53.1,21.0,29,29.74,10.0,NNE,6.9,-,N/A,,Clear,20,2012-10-21 06:53:00